| time (UTC) | temp F | wind direction | speed MPH | gust MPH | rain 1hr in | rain 24hr in | rain mn in | humidity % | barometer mb |
| 20260510142026 | 54 | 64 | 4.0 | 10.0 | 0.00 | 0.00 | 0.00 | 62 | 1018.6 |
| 20260510135004 | 54 | 85 | 4.0 | 13.0 | 0.00 | 0.00 | 0.00 | 62 | 1018.8 |
| 20260510134504 | 54 | 83 | 4.0 | 11.0 | 0.00 | 0.00 | 0.00 | 63 | 1018.9 |
| 20260510134004 | 54 | 78 | 5.0 | 11.0 | 0.00 | 0.00 | 0.00 | 62 | 1018.9 |
| 20260510133504 | 54 | 73 | 6.0 | 14.0 | 0.00 | 0.00 | 0.00 | 63 | 1018.7 |
| 20260510133004 | 54 | 69 | 6.0 | 14.0 | 0.00 | 0.00 | 0.00 | 63 | 1018.9 |
| 20260510132504 | 54 | 76 | 5.0 | 10.0 | 0.00 | 0.00 | 0.00 | 64 | 1018.9 |
| 20260510132004 | 54 | 75 | 5.0 | 10.0 | 0.00 | 0.00 | 0.00 | 64 | 1019.0 |
| 20260510131504 | 54 | 55 | 5.0 | 10.0 | 0.00 | 0.00 | 0.00 | 63 | 1018.9 |
| 20260510131004 | 54 | 50 | 5.0 | 11.0 | 0.00 | 0.00 | 0.00 | 63 | 1018.7 |
| 20260510130504 | 54 | 60 | 4.0 | 11.0 | 0.00 | 0.00 | 0.00 | 63 | 1018.6 |
| 20260510130004 | 54 | 66 | 5.0 | 13.0 | 0.00 | 0.00 | 0.00 | 63 | 1019.0 |
| 20260510125504 | 54 | 68 | 6.0 | 13.0 | 0.00 | 0.00 | 0.00 | 64 | 1018.9 |
| 20260510125004 | 54 | 74 | 6.0 | 13.0 | 0.00 | 0.00 | 0.00 | 64 | 1019.1 |
| 20260510124504 | 54 | 84 | 5.0 | 11.0 | 0.00 | 0.00 | 0.00 | 63 | 1019.2 |
| 20260510124004 | 54 | 80 | 5.0 | 13.0 | 0.00 | 0.00 | 0.00 | 64 | 1019.0 |
| 20260510123504 | 53 | 75 | 6.0 | 13.0 | 0.00 | 0.00 | 0.00 | 64 | 1019.1 |
| 20260510123004 | 54 | 73 | 5.0 | 13.0 | 0.00 | 0.00 | 0.00 | 65 | 1019.3 |
| 20260510122505 | 54 | 74 | 6.0 | 17.0 | 0.00 | 0.00 | 0.00 | 63 | 1019.1 |
| 20260510122004 | 54 | 76 | 6.0 | 17.0 | 0.00 | 0.00 | 0.00 | 63 | 1019.3 |
| 20260510121505 | 54 | 82 | 5.0 | 11.0 | 0.00 | 0.00 | 0.00 | 63 | 1019.2 |
| 20260510121004 | 54 | 83 | 5.0 | 13.0 | 0.00 | 0.00 | 0.00 | 65 | 1019.2 |
| 20260510120511 | 54 | 82 | 5.0 | 13.0 | 0.00 | 0.00 | 0.00 | 64 | 1019.4 |
| 20260510120004 | 54 | 85 | 6.0 | 11.0 | 0.00 | 0.00 | 0.00 | 65 | 1019.3 |
| 20260510115504 | 53 | 79 | 7.0 | 14.0 | 0.00 | 0.00 | 0.00 | 65 | 1019.3 |
| 20260510115003 | 53 | 81 | 7.0 | 15.0 | 0.00 | 0.00 | 0.00 | 65 | 1019.4 |
| 20260510114505 | 53 | 82 | 6.0 | 15.0 | 0.00 | 0.00 | 0.00 | 65 | 1019.5 |
| 20260510114004 | 53 | 74 | 6.0 | 18.0 | 0.00 | 0.00 | 0.00 | 66 | 1019.7 |
| 20260510113504 | 53 | 69 | 6.0 | 18.0 | 0.00 | 0.00 | 0.00 | 67 | 1019.4 |
| 20260510113004 | 53 | 65 | 7.0 | 16.0 | 0.00 | 0.00 | 0.00 | 66 | 1019.8 |
| 20260510112504 | 53 | 68 | 7.0 | 16.0 | 0.00 | 0.00 | 0.00 | 66 | 1019.6 |
| 20260510112004 | 53 | 66 | 6.0 | 16.0 | 0.00 | 0.00 | 0.00 | 65 | 1019.7 |
| 20260510111504 | 54 | 61 | 6.0 | 16.0 | 0.00 | 0.00 | 0.00 | 66 | 1019.9 |
| 20260510111004 | 54 | 64 | 6.0 | 17.0 | 0.00 | 0.00 | 0.00 | 66 | 1019.6 |
| 20260510110504 | 54 | 62 | 6.0 | 17.0 | 0.00 | 0.00 | 0.00 | 66 | 1019.8 |
| 20260510110005 | 54 | 67 | 6.0 | 16.0 | 0.00 | 0.00 | 0.00 | 67 | 1019.6 |
| 20260510105504 | 53 | 71 | 7.0 | 16.0 | 0.00 | 0.00 | 0.00 | 67 | 1019.9 |
| 20260510105004 | 54 | 71 | 7.0 | 15.0 | 0.00 | 0.00 | 0.00 | 66 | 1019.9 |
| 20260510104504 | 54 | 71 | 6.0 | 15.0 | 0.00 | 0.00 | 0.00 | 65 | 1019.8 |
| 20260510104004 | 54 | 55 | 6.0 | 14.0 | 0.00 | 0.00 | 0.00 | 64 | 1019.5 |
| 20260510103503 | 54 | 66 | 5.0 | 15.0 | 0.00 | 0.00 | 0.00 | 64 | 1019.7 |
| 20260510103005 | 54 | 71 | 5.0 | 15.0 | 0.00 | 0.00 | 0.00 | 63 | 1019.6 |
| 20260510102504 | 54 | 65 | 6.0 | 13.0 | 0.00 | 0.00 | 0.00 | 65 | 1019.9 |
| 20260510102003 | 54 | 68 | 6.0 | 13.0 | 0.00 | 0.00 | 0.00 | 65 | 1019.8 |
| 20260510101504 | 54 | 76 | 6.0 | 14.0 | 0.00 | 0.00 | 0.00 | 66 | 1019.7 |
| 20260510101004 | 54 | 78 | 6.0 | 14.0 | 0.00 | 0.00 | 0.00 | 65 | 1020.0 |
| 20260510100504 | 54 | 70 | 5.0 | 14.0 | 0.00 | 0.00 | 0.00 | 65 | 1019.9 |
| 20260510100004 | 53 | 56 | 5.0 | 13.0 | 0.00 | 0.00 | 0.00 | 66 | 1019.9 |
| 20260510095504 | 53 | 69 | 5.0 | 14.0 | 0.00 | 0.00 | 0.00 | 66 | 1020.0 |
| 20260510095004 | 54 | 71 | 5.0 | 14.0 | 0.00 | 0.00 | 0.00 | 65 | 1019.8 |
| 20260510094504 | 53 | 73 | 6.0 | 14.0 | 0.00 | 0.00 | 0.00 | 66 | 1020.0 |
| 20260510094004 | 53 | 86 | 5.0 | 14.0 | 0.00 | 0.00 | 0.00 | 67 | 1020.2 |
| 20260510093503 | 53 | 81 | 4.0 | 10.0 | 0.00 | 0.00 | 0.00 | 68 | 1020.2 |
| 20260510093004 | 52 | 76 | 5.0 | 11.0 | 0.00 | 0.00 | 0.00 | 68 | 1020.2 |
| 20260510092503 | 52 | 77 | 5.0 | 14.0 | 0.00 | 0.00 | 0.00 | 68 | 1020.3 |
| 20260510092003 | 52 | 72 | 5.0 | 14.0 | 0.00 | 0.00 | 0.00 | 69 | 1020.1 |
| 20260510091503 | 52 | 65 | 5.0 | 10.0 | 0.00 | 0.00 | 0.00 | 70 | 1020.2 |
| 20260510091005 | 52 | 69 | 4.0 | 9.0 | 0.00 | 0.00 | 0.00 | 70 | 1020.4 |
| 20260510090503 | 52 | 68 | 5.0 | 14.0 | 0.00 | 0.00 | 0.00 | 70 | 1020.1 |
| 20260510090004 | 51 | 67 | 5.0 | 14.0 | 0.00 | 0.00 | 0.00 | 70 | 1020.3 |
| 20260510085503 | 51 | 66 | 4.0 | 11.0 | 0.00 | 0.00 | 0.00 | 70 | 1020.5 |
| 20260510085003 | 51 | 73 | 5.0 | 14.0 | 0.00 | 0.00 | 0.00 | 69 | 1020.1 |
| 20260510084507 | 51 | 78 | 6.0 | 15.0 | 0.00 | 0.00 | 0.00 | 69 | 1020.3 |
| 20260510084003 | 51 | 83 | 6.0 | 15.0 | 0.00 | 0.00 | 0.00 | 69 | 1020.4 |
| 20260510083504 | 51 | 74 | 6.0 | 15.0 | 0.00 | 0.00 | 0.00 | 69 | 1020.5 |
| 20260510083003 | 51 | 65 | 6.0 | 15.0 | 0.00 | 0.00 | 0.00 | 69 | 1020.3 |
| 20260510082504 | 51 | 68 | 6.0 | 13.0 | 0.00 | 0.00 | 0.00 | 69 | 1020.4 |
| 20260510082003 | 51 | 71 | 6.0 | 15.0 | 0.00 | 0.00 | 0.00 | 68 | 1020.4 |
| 20260510081504 | 51 | 73 | 7.0 | 15.0 | 0.00 | 0.00 | 0.00 | 69 | 1020.4 |
| 20260510081003 | 51 | 70 | 7.0 | 15.0 | 0.00 | 0.00 | 0.00 | 69 | 1020.5 |
| 20260510080505 | 51 | 73 | 6.0 | 15.0 | 0.00 | 0.00 | 0.00 | 69 | 1020.0 |
| 20260510080004 | 51 | 77 | 7.0 | 15.0 | 0.00 | 0.00 | 0.00 | 70 | 1020.5 |
| 20260510075503 | 51 | 68 | 7.0 | 15.0 | 0.00 | 0.00 | 0.00 | 70 | 1020.5 |
| 20260510075003 | 50 | 66 | 7.0 | 15.0 | 0.00 | 0.00 | 0.00 | 71 | 1020.4 |
| 20260510074503 | 50 | 72 | 6.0 | 15.0 | 0.00 | 0.00 | 0.00 | 71 | 1020.3 |
| 20260510074003 | 50 | 80 | 6.0 | 14.0 | 0.00 | 0.00 | 0.00 | 71 | 1020.2 |
| 20260510073503 | 50 | 79 | 7.0 | 21.0 | 0.00 | 0.00 | 0.00 | 71 | 1020.4 |
| 20260510073003 | 51 | 73 | 5.0 | 21.0 | 0.00 | 0.00 | 0.00 | 71 | 1020.0 |
| 20260510072504 | 51 | 70 | 5.0 | 17.0 | 0.00 | 0.00 | 0.00 | 72 | 1020.0 |
| 20260510072003 | 50 | 70 | 6.0 | 17.0 | 0.00 | 0.00 | 0.00 | 73 | 1020.2 |
| 20260510071503 | 50 | 71 | 5.0 | 14.0 | 0.00 | 0.00 | 0.00 | 72 | 1020.1 |
| 20260510071004 | 50 | 80 | 5.0 | 15.0 | 0.00 | 0.00 | 0.00 | 73 | 1020.3 |
| 20260510070503 | 50 | 85 | 5.0 | 15.0 | 0.00 | 0.00 | 0.00 | 73 | 1020.3 |
| 20260510070004 | 50 | 81 | 7.0 | 17.0 | 0.00 | 0.00 | 0.00 | 74 | 1020.0 |
| 20260510065503 | 49 | 77 | 7.0 | 17.0 | 0.00 | 0.00 | 0.00 | 74 | 1020.1 |
| 20260510065003 | 49 | 68 | 6.0 | 15.0 | 0.00 | 0.00 | 0.00 | 75 | 1020.1 |
| 20260510064503 | 49 | 69 | 6.0 | 17.0 | 0.00 | 0.00 | 0.00 | 75 | 1020.1 |
| 20260510064004 | 49 | 74 | 6.0 | 21.0 | 0.00 | 0.00 | 0.00 | 75 | 1020.1 |
| 20260510063503 | 49 | 65 | 5.0 | 21.0 | 0.00 | 0.00 | 0.00 | 75 | 1020.0 |
| 20260510063003 | 49 | 67 | 5.0 | 14.0 | 0.00 | 0.00 | 0.00 | 75 | 1020.0 |
| 20260510062503 | 49 | 74 | 6.0 | 14.0 | 0.00 | 0.00 | 0.00 | 75 | 1019.9 |
| 20260510062003 | 49 | 67 | 6.0 | 11.0 | 0.00 | 0.00 | 0.00 | 76 | 1019.9 |
| 20260510061503 | 49 | 71 | 7.0 | 15.0 | 0.00 | 0.00 | 0.00 | 76 | 1019.8 |
| 20260510061003 | 49 | 72 | 6.0 | 15.0 | 0.00 | 0.00 | 0.00 | 76 | 1020.0 |
| 20260510060503 | 49 | 64 | 5.0 | 14.0 | 0.00 | 0.00 | 0.00 | 77 | 1020.1 |
| 20260510060004 | 49 | 67 | 5.0 | 11.0 | 0.00 | 0.00 | 0.00 | 77 | 1019.9 |
| 20260510055503 | 49 | 66 | 5.0 | 16.0 | 0.00 | 0.00 | 0.00 | 77 | 1020.0 |
| 20260510055003 | 49 | 70 | 5.0 | 16.0 | 0.00 | 0.00 | 0.00 | 77 | 1020.2 |
| 20260510054503 | 49 | 72 | 6.0 | 16.0 | 0.00 | 0.00 | 0.00 | 78 | 1020.0 |
| 20260510054003 | 49 | 64 | 5.0 | 13.0 | 0.00 | 0.00 | 0.00 | 78 | 1020.2 |
| 20260510053504 | 49 | 65 | 5.0 | 15.0 | 0.00 | 0.00 | 0.00 | 78 | 1020.0 |
| 20260510053004 | 49 | 64 | 5.0 | 15.0 | 0.00 | 0.00 | 0.00 | 78 | 1020.1 |
| 20260510052503 | 48 | 59 | 5.0 | 13.0 | 0.00 | 0.00 | 0.00 | 78 | 1020.0 |
| 20260510052003 | 48 | 61 | 5.0 | 11.0 | 0.00 | 0.00 | 0.00 | 78 | 1020.0 |
| 20260510051504 | 48 | 68 | 5.0 | 11.0 | 0.00 | 0.00 | 0.00 | 78 | 1020.1 |
| 20260510051003 | 48 | 78 | 4.0 | 10.0 | 0.00 | 0.00 | 0.00 | 78 | 1019.9 |
| 20260510050503 | 48 | 76 | 4.0 | 10.0 | 0.00 | 0.00 | 0.00 | 78 | 1020.0 |
| 20260510050004 | 48 | 68 | 5.0 | 10.0 | 0.00 | 0.00 | 0.00 | 79 | 1020.0 |
| 20260510045503 | 48 | 55 | 5.0 | 11.0 | 0.00 | 0.00 | 0.00 | 79 | 1020.0 |
| 20260510045003 | 48 | 58 | 5.0 | 11.0 | 0.00 | 0.00 | 0.00 | 79 | 1020.2 |
| 20260510044503 | 48 | 72 | 5.0 | 11.0 | 0.00 | 0.00 | 0.00 | 79 | 1020.2 |
| 20260510044003 | 48 | 72 | 5.0 | 14.0 | 0.00 | 0.00 | 0.00 | 79 | 1020.2 |
| 20260510043503 | 48 | 68 | 4.0 | 14.0 | 0.00 | 0.00 | 0.00 | 79 | 1020.0 |
| 20260510043004 | 48 | 59 | 4.0 | 11.0 | 0.00 | 0.00 | 0.00 | 79 | 1020.2 |
| 20260510042503 | 48 | 73 | 4.0 | 11.0 | 0.00 | 0.00 | 0.00 | 79 | 1020.1 |
| 20260510042003 | 48 | 78 | 4.0 | 9.0 | 0.00 | 0.00 | 0.00 | 79 | 1020.2 |
| 20260510041503 | 48 | 65 | 5.0 | 11.0 | 0.00 | 0.00 | 0.00 | 79 | 1020.1 |
| 20260510041004 | 48 | 66 | 5.0 | 11.0 | 0.00 | 0.00 | 0.00 | 79 | 1020.1 |
| 20260510040003 | 48 | 75 | 4.0 | 8.0 | 0.00 | 0.00 | 0.00 | 79 | 1020.3 |
| 20260510035503 | 48 | 76 | 4.0 | 11.0 | 0.00 | 0.00 | 0.00 | 79 | 1020.3 |
| 20260510035003 | 48 | 69 | 5.0 | 11.0 | 0.00 | 0.00 | 0.00 | 79 | 1020.4 |
| 20260510034503 | 48 | 75 | 4.0 | 11.0 | 0.00 | 0.00 | 0.00 | 79 | 1020.5 |
| 20260510034003 | 48 | 84 | 5.0 | 15.0 | 0.00 | 0.00 | 0.00 | 79 | 1020.5 |
| 20260510033506 | 48 | 81 | 6.0 | 15.0 | 0.00 | 0.00 | 0.00 | 79 | 1020.6 |
| 20260510033003 | 48 | 75 | 4.0 | 11.0 | 0.00 | 0.00 | 0.00 | 79 | 1020.6 |
| 20260510032504 | 48 | 65 | 5.0 | 11.0 | 0.00 | 0.00 | 0.00 | 79 | 1020.6 |
| 20260510032003 | 48 | 61 | 5.0 | 10.0 | 0.00 | 0.00 | 0.00 | 79 | 1020.6 |
| 20260510031503 | 48 | 71 | 3.0 | 10.0 | 0.00 | 0.00 | 0.00 | 79 | 1020.5 |
| 20260510031003 | 48 | 76 | 3.0 | 10.0 | 0.00 | 0.00 | 0.00 | 79 | 1020.4 |
| 20260510030503 | 48 | 77 | 4.0 | 11.0 | 0.00 | 0.00 | 0.00 | 79 | 1020.4 |
| 20260510030004 | 48 | 71 | 5.0 | 13.0 | 0.00 | 0.00 | 0.00 | 79 | 1020.6 |
| 20260510025503 | 48 | 66 | 5.0 | 13.0 | 0.00 | 0.00 | 0.00 | 78 | 1020.4 |
| 20260510025003 | 48 | 69 | 4.0 | 13.0 | 0.00 | 0.00 | 0.00 | 78 | 1020.3 |
| 20260510024503 | 48 | 65 | 4.0 | 9.0 | 0.00 | 0.00 | 0.00 | 77 | 1020.3 |
| 20260510024004 | 49 | 60 | 4.0 | 9.0 | 0.00 | 0.00 | 0.00 | 76 | 1020.3 |
| 20260510023503 | 49 | 63 | 4.0 | 9.0 | 0.00 | 0.00 | 0.00 | 75 | 1020.3 |
| 20260510023003 | 49 | 66 | 3.0 | 8.0 | 0.00 | 0.00 | 0.00 | 74 | 1020.7 |
| 20260510022503 | 49 | 63 | 3.0 | 11.0 | 0.00 | 0.00 | 0.00 | 72 | 1020.3 |
| 20260510022003 | 49 | 62 | 4.0 | 11.0 | 0.00 | 0.00 | 0.00 | 72 | 1020.5 |
| 20260510021503 | 49 | 68 | 4.0 | 11.0 | 0.00 | 0.00 | 0.00 | 71 | 1020.7 |
| 20260510021003 | 49 | 77 | 3.0 | 11.0 | 0.00 | 0.00 | 0.00 | 70 | 1020.6 |
| 20260510020503 | 49 | 82 | 3.0 | 9.0 | 0.00 | 0.00 | 0.00 | 70 | 1020.7 |
| 20260510020003 | 50 | 74 | 4.0 | 10.0 | 0.00 | 0.00 | 0.00 | 69 | 1020.4 |
| 20260510015503 | 50 | 76 | 4.0 | 10.0 | 0.00 | 0.00 | 0.00 | 68 | 1020.3 |
| 20260510015003 | 50 | 80 | 4.0 | 11.0 | 0.00 | 0.00 | 0.00 | 67 | 1020.7 |
| 20260510014503 | 50 | 75 | 4.0 | 11.0 | 0.00 | 0.00 | 0.00 | 66 | 1020.5 |
| 20260510014003 | 50 | 73 | 3.0 | 7.0 | 0.00 | 0.00 | 0.00 | 65 | 1020.6 |
| 20260510013503 | 50 | 75 | 2.0 | 7.0 | 0.00 | 0.00 | 0.00 | 64 | 1020.4 |
| 20260510013003 | 50 | 85 | 2.0 | 8.0 | 0.00 | 0.00 | 0.00 | 64 | 1020.5 |
| 20260510012503 | 51 | 84 | 3.0 | 8.0 | 0.00 | 0.00 | 0.00 | 63 | 1020.4 |
| 20260510012003 | 51 | 75 | 2.0 | 6.0 | 0.00 | 0.00 | 0.00 | 63 | 1020.7 |
| 20260510011503 | 51 | 75 | 3.0 | 8.0 | 0.00 | 0.00 | 0.00 | 62 | 1020.6 |
| 20260510011003 | 51 | 67 | 3.0 | 8.0 | 0.00 | 0.00 | 0.00 | 61 | 1020.5 |
| 20260510010503 | 51 | 67 | 2.0 | 8.0 | 0.00 | 0.00 | 0.00 | 61 | 1020.4 |
| 20260510010003 | 51 | 72 | 2.0 | 7.0 | 0.00 | 0.00 | 0.00 | 60 | 1020.4 |
| 20260510005503 | 51 | 63 | 3.0 | 8.0 | 0.00 | 0.00 | 0.00 | 59 | 1020.4 |
| 20260510005003 | 51 | 57 | 3.0 | 8.0 | 0.00 | 0.00 | 0.00 | 58 | 1020.6 |
| 20260510004503 | 52 | 66 | 3.0 | 7.0 | 0.00 | 0.00 | 0.00 | 57 | 1020.3 |
| 20260510004003 | 52 | 69 | 3.0 | 7.0 | 0.00 | 0.00 | 0.00 | 57 | 1020.5 |
| 20260510003503 | 52 | 64 | 2.0 | 7.0 | 0.00 | 0.00 | 0.00 | 56 | 1020.6 |
| 20260510003004 | 52 | 65 | 2.0 | 7.0 | 0.00 | 0.00 | 0.00 | 56 | 1020.4 |
| 20260510002503 | 53 | 68 | 2.0 | 7.0 | 0.00 | 0.00 | 0.00 | 56 | 1020.4 |
| 20260510002003 | 53 | 70 | 3.0 | 6.0 | 0.00 | 0.00 | 0.00 | 56 | 1020.3 |
| 20260510001503 | 53 | 69 | 3.0 | 7.0 | 0.00 | 0.00 | 0.00 | 56 | 1020.3 |
| 20260510001003 | 53 | 69 | 3.0 | 8.0 | 0.00 | 0.00 | 0.00 | 57 | 1020.1 |
| 20260510000503 | 53 | 61 | 3.0 | 8.0 | 0.00 | 0.00 | 0.00 | 57 | 1020.2 |
| 20260510000003 | 53 | 64 | 3.0 | 9.0 | 0.00 | 0.00 | 0.00 | 59 | 1020.1 |
| 20260509235503 | 54 | 73 | 3.0 | 9.0 | 0.00 | 0.00 | 0.00 | 60 | 1019.9 |
| 20260509235003 | 54 | 73 | 3.0 | 8.0 | 0.00 | 0.00 | 0.00 | 61 | 1019.9 |
| 20260509234503 | 54 | 64 | 3.0 | 8.0 | 0.00 | 0.00 | 0.00 | 62 | 1020.0 |
| 20260509234003 | 54 | 56 | 4.0 | 9.0 | 0.00 | 0.00 | 0.00 | 63 | 1020.0 |
| 20260509233503 | 54 | 60 | 3.0 | 9.0 | 0.00 | 0.00 | 0.00 | 64 | 1020.0 |
| 20260509233003 | 54 | 70 | 3.0 | 8.0 | 0.00 | 0.00 | 0.00 | 65 | 1019.8 |
| 20260509232503 | 54 | 71 | 3.0 | 8.0 | 0.00 | 0.00 | 0.00 | 65 | 1019.8 |
| 20260509232003 | 55 | 69 | 3.0 | 11.0 | 0.00 | 0.00 | 0.00 | 66 | 1020.1 |
| 20260509231503 | 55 | 66 | 3.0 | 11.0 | 0.00 | 0.00 | 0.00 | 66 | 1019.7 |
| 20260509231003 | 55 | 73 | 2.0 | 7.0 | 0.00 | 0.00 | 0.00 | 67 | 1019.7 |
| 20260509230503 | 55 | 76 | 3.0 | 9.0 | 0.00 | 0.00 | 0.00 | 66 | 1019.7 |
| 20260509230004 | 55 | 68 | 4.0 | 9.0 | 0.00 | 0.00 | 0.00 | 66 | 1019.5 |
| 20260509225503 | 56 | 61 | 4.0 | 8.0 | 0.00 | 0.00 | 0.00 | 65 | 1019.2 |
| 20260509225003 | 56 | 63 | 3.0 | 9.0 | 0.00 | 0.00 | 0.00 | 65 | 1019.4 |
| 20260509224503 | 56 | 64 | 4.0 | 13.0 | 0.00 | 0.00 | 0.00 | 64 | 1019.6 |
| 20260509224006 | 56 | 64 | 3.0 | 13.0 | 0.00 | 0.00 | 0.00 | 64 | 1019.3 |
| 20260509223503 | 56 | 70 | 3.0 | 7.0 | 0.00 | 0.00 | 0.00 | 63 | 1019.6 |
| 20260509223003 | 56 | 63 | 2.0 | 6.0 | 0.00 | 0.00 | 0.00 | 63 | 1019.5 |
| 20260509222503 | 56 | 56 | 2.0 | 4.0 | 0.00 | 0.00 | 0.00 | 62 | 1019.8 |
| 20260509222006 | 56 | 59 | 1.0 | 4.0 | 0.00 | 0.00 | 0.00 | 61 | 1019.4 |
| 20260509221503 | 57 | 54 | 1.0 | 4.0 | 0.00 | 0.00 | 0.00 | 60 | 1019.7 |
| 20260509221003 | 57 | 56 | 2.0 | 7.0 | 0.00 | 0.00 | 0.00 | 59 | 1019.6 |
| 20260509220503 | 57 | 64 | 2.0 | 7.0 | 0.00 | 0.00 | 0.00 | 59 | 1019.6 |
| 20260509220004 | 57 | 65 | 2.0 | 6.0 | 0.00 | 0.00 | 0.00 | 60 | 1019.8 |
| 20260509215503 | 57 | 55 | 2.0 | 6.0 | 0.00 | 0.00 | 0.00 | 62 | 1019.3 |
| 20260509215006 | 58 | 51 | 2.0 | 6.0 | 0.00 | 0.00 | 0.00 | 62 | 1019.5 |
| 20260509214503 | 58 | 41 | 2.0 | 4.0 | 0.00 | 0.00 | 0.00 | 64 | 1019.6 |
| 20260509214003 | 58 | 21 | 2.0 | 4.0 | 0.00 | 0.00 | 0.00 | 65 | 1019.6 |
| 20260509213504 | 58 | 17 | 2.0 | 4.0 | 0.00 | 0.00 | 0.00 | 66 | 1019.5 |
| 20260509213003 | 58 | 358 | 2.0 | 4.0 | 0.00 | 0.00 | 0.00 | 66 | 1019.6 |
| 20260509212503 | 58 | 342 | 2.0 | 6.0 | 0.00 | 0.00 | 0.00 | 66 | 1019.6 |
| 20260509212003 | 58 | 331 | 2.0 | 7.0 | 0.00 | 0.00 | 0.00 | 65 | 1019.4 |
| 20260509211503 | 59 | 331 | 3.0 | 7.0 | 0.00 | 0.00 | 0.00 | 64 | 1019.2 |
| 20260509211003 | 59 | 338 | 3.0 | 8.0 | 0.00 | 0.00 | 0.00 | 61 | 1019.2 |
| 20260509210503 | 59 | 344 | 3.0 | 8.0 | 0.00 | 0.00 | 0.00 | 59 | 1019.1 |
| 20260509210003 | 59 | 13 | 3.0 | 7.0 | 0.00 | 0.00 | 0.00 | 58 | 1019.0 |
| 20260509205503 | 59 | 37 | 2.0 | 8.0 | 0.00 | 0.00 | 0.00 | 57 | 1019.1 |
| 20260509205003 | 59 | 33 | 2.0 | 8.0 | 0.00 | 0.00 | 0.00 | 54 | 1018.9 |
| 20260509204503 | 59 | 1 | 1.0 | 3.0 | 0.00 | 0.00 | 0.00 | 53 | 1019.1 |
| 20260509204003 | 59 | 20 | 1.0 | 3.0 | 0.00 | 0.00 | 0.00 | 53 | 1019.0 |
| 20260509203503 | 59 | 39 | 1.0 | 3.0 | 0.00 | 0.00 | 0.00 | 53 | 1018.8 |
| 20260509203003 | 59 | 31 | 1.0 | 3.0 | 0.00 | 0.00 | 0.00 | 53 | 1018.7 |
| 20260509202503 | 60 | 5 | 1.0 | 3.0 | 0.00 | 0.00 | 0.00 | 53 | 1018.8 |
| 20260509202005 | 60 | 11 | 1.0 | 3.0 | 0.00 | 0.00 | 0.00 | 53 | 1018.7 |
| 20260509201505 | 60 | 16 | 1.0 | 4.0 | 0.00 | 0.00 | 0.00 | 52 | 1018.7 |
| 20260509201005 | 60 | 28 | 1.0 | 4.0 | 0.00 | 0.00 | 0.00 | 52 | 1018.5 |
| 20260509200505 | 60 | 37 | 2.0 | 4.0 | 0.00 | 0.00 | 0.00 | 52 | 1018.5 |
| 20260509200005 | 60 | 37 | 2.0 | 4.0 | 0.00 | 0.00 | 0.00 | 51 | 1018.3 |
| 20260509195505 | 61 | 42 | 1.0 | 4.0 | 0.00 | 0.00 | 0.00 | 51 | 1018.4 |
| 20260509195005 | 61 | 52 | 1.0 | 3.0 | 0.00 | 0.00 | 0.00 | 51 | 1018.5 |
| 20260509194505 | 61 | 60 | 1.0 | 3.0 | 0.00 | 0.00 | 0.00 | 51 | 1018.6 |
| 20260509194005 | 61 | 58 | 1.0 | 3.0 | 0.00 | 0.00 | 0.00 | 51 | 1018.4 |
| 20260509193505 | 62 | 45 | 1.0 | 4.0 | 0.00 | 0.00 | 0.00 | 50 | 1018.6 |
| 20260509193005 | 62 | 33 | 2.0 | 4.0 | 0.00 | 0.00 | 0.00 | 50 | 1018.3 |
| 20260509192505 | 62 | 28 | 1.0 | 4.0 | 0.00 | 0.00 | 0.00 | 49 | 1018.3 |
| 20260509192005 | 63 | 27 | 1.0 | 4.0 | 0.00 | 0.00 | 0.00 | 49 | 1018.5 |
| 20260509191505 | 63 | 36 | 1.0 | 4.0 | 0.00 | 0.00 | 0.00 | 48 | 1018.4 |
| 20260509191006 | 63 | 41 | 1.0 | 4.0 | 0.00 | 0.00 | 0.00 | 47 | 1018.3 |
| 20260509190505 | 64 | 46 | 1.0 | 3.0 | 0.00 | 0.00 | 0.00 | 47 | 1018.3 |
| 20260509190006 | 64 | 58 | 2.0 | 4.0 | 0.00 | 0.00 | 0.00 | 47 | 1018.2 |
| 20260509185505 | 64 | 66 | 2.0 | 6.0 | 0.00 | 0.00 | 0.00 | 46 | 1018.1 |
| 20260509185005 | 65 | 55 | 2.0 | 6.0 | 0.00 | 0.00 | 0.00 | 45 | 1018.1 |
| 20260509184505 | 65 | 56 | 2.0 | 6.0 | 0.00 | 0.00 | 0.00 | 45 | 1018.2 |
| 20260509184005 | 65 | 64 | 3.0 | 6.0 | 0.00 | 0.00 | 0.00 | 45 | 1018.3 |
| 20260509183505 | 65 | 55 | 3.0 | 7.0 | 0.00 | 0.00 | 0.00 | 45 | 1018.2 |
| 20260509183005 | 65 | 59 | 3.0 | 8.0 | 0.00 | 0.00 | 0.00 | 44 | 1018.1 |
| 20260509182505 | 66 | 62 | 3.0 | 8.0 | 0.00 | 0.00 | 0.00 | 44 | 1018.1 |
| 20260509182005 | 66 | 63 | 3.0 | 8.0 | 0.00 | 0.00 | 0.00 | 44 | 1017.9 |
| 20260509181505 | 66 | 63 | 2.0 | 6.0 | 0.00 | 0.00 | 0.00 | 44 | 1017.9 |
| 20260509181005 | 67 | 58 | 3.0 | 9.0 | 0.00 | 0.00 | 0.00 | 43 | 1018.1 |
| 20260509180505 | 66 | 58 | 3.0 | 9.0 | 0.00 | 0.00 | 0.00 | 44 | 1018.0 |
| 20260509180005 | 67 | 62 | 3.0 | 11.0 | 0.00 | 0.00 | 0.00 | 43 | 1018.0 |
| 20260509175506 | 67 | 65 | 4.0 | 11.0 | 0.00 | 0.00 | 0.00 | 43 | 1018.0 |
| 20260509175005 | 67 | 68 | 4.0 | 9.0 | 0.00 | 0.00 | 0.00 | 42 | 1017.9 |
| 20260509174508 | 67 | 70 | 4.0 | 9.0 | 0.00 | 0.00 | 0.00 | 42 | 1017.8 |
| 20260509174005 | 67 | 71 | 4.0 | 9.0 | 0.00 | 0.00 | 0.00 | 42 | 1017.9 |
| 20260509173505 | 67 | 70 | 4.0 | 8.0 | 0.00 | 0.00 | 0.00 | 42 | 1017.8 |
| 20260509173005 | 67 | 63 | 4.0 | 9.0 | 0.00 | 0.00 | 0.00 | 43 | 1017.6 |
| 20260509172508 | 67 | 53 | 4.0 | 9.0 | 0.00 | 0.00 | 0.00 | 43 | 1017.8 |
| 20260509172005 | 67 | 56 | 3.0 | 7.0 | 0.00 | 0.00 | 0.00 | 42 | 1018.0 |
| 20260509171505 | 67 | 75 | 3.0 | 9.0 | 0.00 | 0.00 | 0.00 | 42 | 1017.9 |
| 20260509171005 | 67 | 67 | 4.0 | 9.0 | 0.00 | 0.00 | 0.00 | 42 | 1018.0 |
| 20260509170506 | 67 | 58 | 3.0 | 8.0 | 0.00 | 0.00 | 0.00 | 42 | 1018.0 |
| 20260509170005 | 68 | 61 | 3.0 | 10.0 | 0.00 | 0.00 | 0.00 | 42 | 1017.8 |
| 20260509165505 | 68 | 57 | 4.0 | 10.0 | 0.00 | 0.00 | 0.00 | 43 | 1018.0 |
| 20260509165005 | 68 | 53 | 4.0 | 9.0 | 0.00 | 0.00 | 0.00 | 43 | 1018.0 |
| 20260509164505 | 68 | 55 | 4.0 | 9.0 | 0.00 | 0.00 | 0.00 | 43 | 1017.9 |
| 20260509164005 | 68 | 57 | 3.0 | 7.0 | 0.00 | 0.00 | 0.00 | 43 | 1018.1 |
| 20260509163505 | 68 | 49 | 3.0 | 9.0 | 0.00 | 0.00 | 0.00 | 44 | 1018.1 |
| 20260509163005 | 68 | 56 | 3.0 | 9.0 | 0.00 | 0.00 | 0.00 | 44 | 1018.2 |
| 20260509162505 | 68 | 62 | 3.0 | 8.0 | 0.00 | 0.00 | 0.00 | 44 | 1017.9 |
| 20260509162005 | 68 | 65 | 3.0 | 10.0 | 0.00 | 0.00 | 0.00 | 44 | 1018.2 |
| 20260509161505 | 68 | 72 | 4.0 | 10.0 | 0.00 | 0.00 | 0.00 | 43 | 1018.3 |
| 20260509161005 | 68 | 67 | 4.0 | 8.0 | 0.00 | 0.00 | 0.00 | 44 | 1018.1 |
| 20260509160505 | 68 | 62 | 3.0 | 9.0 | 0.00 | 0.00 | 0.00 | 44 | 1018.3 |
| 20260509160005 | 67 | 66 | 4.0 | 9.0 | 0.00 | 0.00 | 0.00 | 45 | 1018.3 |
| 20260509155505 | 67 | 49 | 4.0 | 9.0 | 0.00 | 0.00 | 0.00 | 46 | 1018.2 |
| 20260509155005 | 67 | 52 | 3.0 | 8.0 | 0.00 | 0.00 | 0.00 | 46 | 1018.5 |
| 20260509154505 | 67 | 73 | 3.0 | 7.0 | 0.00 | 0.00 | 0.00 | 47 | 1018.2 |
| 20260509154005 | 66 | 73 | 3.0 | 7.0 | 0.00 | 0.00 | 0.00 | 46 | 1018.4 |
| 20260509153505 | 66 | 70 | 4.0 | 9.0 | 0.00 | 0.00 | 0.00 | 44 | 1018.3 |
| 20260509153005 | 66 | 56 | 3.0 | 9.0 | 0.00 | 0.00 | 0.00 | 45 | 1018.5 |
| 20260509152505 | 67 | 40 | 2.0 | 7.0 | 0.00 | 0.00 | 0.00 | 45 | 1018.5 |
| 20260509152005 | 67 | 59 | 2.0 | 6.0 | 0.00 | 0.00 | 0.00 | 45 | 1018.5 |
| 20260509151505 | 67 | 80 | 3.0 | 7.0 | 0.00 | 0.00 | 0.00 | 44 | 1018.6 |
| 20260509151005 | 67 | 76 | 3.0 | 8.0 | 0.00 | 0.00 | 0.00 | 44 | 1018.5 |
| 20260509150505 | 67 | 59 | 2.0 | 8.0 | 0.00 | 0.00 | 0.00 | 44 | 1018.7 |
| 20260509150005 | 68 | 70 | 3.0 | 8.0 | 0.00 | 0.00 | 0.00 | 43 | 1018.6 |
| 20260509145505 | 68 | 72 | 4.0 | 8.0 | 0.00 | 0.00 | 0.00 | 43 | 1018.6 |
| 20260509145005 | 69 | 80 | 3.0 | 8.0 | 0.00 | 0.00 | 0.00 | 41 | 1018.7 |
| 20260509144505 | 69 | 95 | 4.0 | 9.0 | 0.00 | 0.00 | 0.00 | 41 | 1018.6 |
| 20260509144005 | 69 | 86 | 4.0 | 11.0 | 0.00 | 0.00 | 0.00 | 40 | 1018.6 |
| 20260509143505 | 69 | 80 | 3.0 | 11.0 | 0.00 | 0.00 | 0.00 | 39 | 1018.6 |
| 20260509143005 | 69 | 86 | 2.0 | 8.0 | 0.00 | 0.00 | 0.00 | 40 | 1018.6 |
| 20260509142505 | 69 | 94 | 3.0 | 8.0 | 0.00 | 0.00 | 0.00 | 40 | 1018.6 |